Location: Table Rock
(44.3339°N, 118.3154°W)
Time: 02:17:14
(UTC-08:00)

Daily predictions for brighter satellites

Satellite Brightness Start Highest point End
(mag) Time Altitude Azimuth Time Altitude Azimuth Time Altitude Azimuth
Cosmos 2333 Rocket 4.4 03:38:55 18° NNE 03:38:55 18° NNE 03:40:16 10° NNE
Cosmos 2278 Rocket 4.5 03:55:57 14° SSE 03:55:57 14° SSE 03:56:37 10° SSE
SL-16 R/B 3.3 03:59:24 38° SE 04:00:27 42° ESE 04:05:46 10° NE
Timation 1 Rocket 4.5 04:13:58 72° E 04:13:58 72° E 04:19:33 10° SSE
Cosmos 1680 Rocket 4.2 04:19:29 31° SSE 04:21:41 51° ESE 04:26:43 10° NNE
USA 215 3.5 04:18:56 10° NE 04:25:25 63° SE 04:28:10 36° SSW
Cosmos 2181 Rocket 3.9 04:27:25 71° NNW 04:28:09 82° W 04:34:31 10° S
Cosmos 2237 Rocket 3.4 04:34:09 29° N 04:34:09 29° N 04:37:03 10° NNE
Cosmos 1709 Rocket 4.3 04:36:53 49° NNW 04:36:53 49° NNW 04:41:30 10° N
Tiangong 2 3.8 04:38:00 19° ESE 04:38:00 19° ESE 04:39:10 10° E
Feng Yun 1-1 Rocket 4.1 04:33:27 10° NNE 04:39:09 88° ESE 04:44:39 10° SSW
Cosmos 2112 Rocket 4.3 04:35:23 10° S 04:40:32 64° ESE 04:45:41 10° NNE
Cosmos 1536 Rocket 4.1 04:43:30 37° NNE 04:45:00 57° ENE 04:49:21 10° SSE
Meteor 1-18 Rocket 4.3 04:41:22 24° N 04:45:10 85° E 04:51:07 10° S
CENTAUR R/B 2.4 04:46:00 58° W 04:47:02 68° NW 04:54:01 10° NE
Cosmos 1238 Rocket 3.3 04:47:59 54° N 04:49:04 86° E 04:54:37 10° S
Gbstr 26 Del rocket 4.0 04:51:19 37° S 04:51:19 37° S 04:54:20 10° SSE
Lacrosse 5 rocket 3.3 04:54:48 19° N 04:54:48 19° N 04:56:38 10° NNE
ADEOS II 3.8 04:51:52 10° N 04:53:21 18° N 04:53:21 18° N
Cosmos 2369 Rocket 3.8 04:54:08 11° N 04:59:01 32° NE 05:04:04 10° ESE
PSLV R/B 4.3 05:01:56 42° SSE 05:01:56 42° SSE 05:04:39 10° ESE
ATLAS 3B R/B 4.5 05:04:33 15° NNW 05:06:14 16° N 05:10:21 10° NNE
Meteor 1-20 Rocket 4.1 05:03:25 10° S 05:09:00 85° W 05:14:34 10° N
Cosmos 921 Rocket 2.9 05:08:51 50° NNW 05:09:58 76° WSW 05:14:28 10° S
Cosmos 2219 Rocket 3.9 05:12:57 16° NNW 05:12:57 16° NNW 05:14:52 10° N
COSMO-SKYMED 1 2.4 05:06:58 10° SSE 05:11:19 84° W 05:13:27 30° NNW
Lacrosse 5 3.8 05:07:59 10° S 05:12:20 29° SE 05:16:41 10° ENE
SJ-6F 4.2 05:09:31 10° N 05:13:35 70° WNW 05:17:37 10° SSW
ATLAS 5 CENTAUR R/B 4.3 05:15:02 10° NNW 05:15:54 10° N 05:16:48 10° N
Cosmos 2297 4.4 05:18:46 32° WSW 05:18:46 32° WSW 05:23:36 10° SSW
Cosmos 2333 Rocket 3.7 05:20:58 19° NNW 05:20:58 19° NNW 05:23:44 10° N
CZ-4C R/B 4.4 05:17:35 12° NNW 05:19:59 14° N 05:23:24 10° NNE
Nadezhda 3 Rocket 4.4 05:14:56 10° N 05:21:17 69° E 05:27:38 10° SSE
Cosmos 2056 Rocket 3.5 05:17:27 17° NNW 05:21:27 81° ENE 05:26:34 10° SSE
Okean 1 3.3 05:21:05 43° NW 05:22:11 60° W 05:26:09 10° S
USA 32 4.3 05:29:00 11° NNW 05:33:41 43° W 05:38:36 10° SSW
Meteor 1-19 Rocket 4.4 05:28:06 10° N 05:34:00 78° E 05:39:47 10° SSE
Cosmos 1624 Rocket 3.9 05:31:20 16° NNW 05:35:33 72° WSW 05:40:50 10° S
DMSP B5D1-3 4.5 05:30:28 10° S 05:35:34 64° WSW 05:40:43 10° NNW
Cosmos 1300 Rocket 3.4 05:33:13 10° SSW 05:37:39 79° W 05:42:06 10° N
Cosmos 1812 4.0 05:38:56 23° WSW 05:38:56 23° WSW 05:41:06 10° SSW
Meteor 1-11 Rocket 4.0 05:32:37 10° S 05:38:29 75° E 05:44:14 10° NNE
Cosmos 1602 3.7 05:34:57 10° S 05:38:54 88° ESE 05:42:54 10° N
Cosmos 1371 Rocket 4.1 05:35:56 19° NW 05:39:37 54° WSW 05:44:44 10° S
Ariane Rocket 2.9 05:35:04 10° NNE 05:40:09 80° WNW 05:45:12 10° SSW
Cosmos 2341 Rocket 4.4 05:34:00 10° S 05:40:15 68° E 05:46:28 10° NNE
Cosmos 1346 Rocket 3.1 05:40:03 28° NW 05:41:31 41° W 05:45:13 10° SSW
Cosmos 2074 Rocket 4.2 05:37:10 10° SSW 05:43:10 46° WNW 05:49:12 10° N
SL-16 R/B 2.8 05:41:26 19° WSW 05:44:40 33° NW 05:49:47 10° N
Cosmos 292 Rocket 4.4 05:41:22 13° WSW 05:45:13 34° WNW 05:49:37 10° N
SL-24 DEB 4.2 05:43:23 10° S 05:48:10 85° W 05:53:00 10° N
Meteor 1-13 Rocket 4.3 05:43:39 10° NNW 05:49:33 67° W 05:55:26 10° S
CZ-4 R/B 2.3 05:46:54 10° NNE 05:50:47 50° E 05:54:35 10° S
Cosmos 1943 Rocket 3.4 05:47:30 10° NNW 05:52:37 37° NE 05:57:42 10° ESE
Cosmos 2184 Rocket 4.4 05:51:26 10° SW 05:57:06 38° WNW 06:02:50 10° N
Lacrosse 4 Rocket 3.7 05:55:30 10° N 05:58:32 19° NE 06:01:31 10° E
Meteor 1-23 Rocket 4.2 05:59:23 10° N 06:04:59 87° E 06:10:33 10° S
Meteor 1-28 Rocket 3.8 06:01:46 10° SSW 06:05:16 35° W 06:08:48 10° NNW
Cosmos 1633 2.8 06:03:32 10° SSW 06:07:03 44° WNW 06:10:34 10° N
USA 215 3.5 06:02:04 10° NE 06:08:19 50° NNW 06:14:33 10° W
Cosmos 1536 2.7 06:04:25 10° SSW 06:08:22 70° W 06:12:23 10° N
Abrixas rocket 3.9 06:06:33 10° SW 06:09:40 35° SSE 06:12:46 10° E
Cosmos 1452 Rocket 3.5 06:05:44 10° NNW 06:11:03 88° WSW 06:16:20 10° SSE
Cosmos 2154 Rocket 4.1 06:06:12 10° SSW 06:12:16 54° WNW 06:18:21 10° N
Tiangong 2 1.3 06:10:04 15° W 06:12:36 67° S 06:15:44 10° E
Cosmos 2237 Rocket 4.0 06:16:01 11° NW 06:17:02 11° NW 06:18:34 10° NNW
IRS-1A Rocket 4.3 06:13:44 10° N 06:19:23 71° WNW 06:25:07 10° SSW
Helios 1B rocket 2.4 06:18:43 10° S 06:22:51 78° WSW 06:27:02 10° NNW
Meteor 2-4 Rocket 3.8 06:18:03 10° NNW 06:23:26 57° W 06:28:54 10° S
Cosmos 1340 2.8 06:20:01 10° N 06:23:49 81° ENE 06:27:36 10° SSE
AQUARIUS 4.2 06:21:15 10° NNE 06:25:47 89° W 06:30:17 10° SSW
CZ-2C R/B 2.5 06:23:05 10° NNE 06:28:19 86° WNW 06:33:25 10° SSW
YAOGAN 1 2.6 06:25:13 10° NNE 06:29:35 88° WNW 06:33:55 10° SSW
Cosmos 1484 Rocket 4.1 06:26:36 10° NNE 06:30:13 43° E 06:33:51 10° S
CSL-04 Rocket 4.2 06:26:58 10° N 06:32:05 38° WNW 06:37:08 10° SW
Lacrosse 5 rocket 3.4 06:31:16 10° NW 06:33:44 15° N 06:36:17 10° NE
Meteor 1-5 Rocket 4.1 06:31:06 10° SSW 06:36:29 75° W 06:41:49 10° N
CENTAUR R/B 3.9 06:34:03 10° WNW 06:39:10 23° NNW 06:44:46 10° NNE
SJ-7 4.4 06:35:26 10° N 06:39:37 67° WNW 06:43:42 10° SSW
SMAP 3.1 06:35:16 10° N 06:39:54 67° WNW 06:44:30 10° SSW
Cosmos 1025 Rocket 3.7 06:35:54 10° NNW 06:39:55 35° W 06:43:53 10° SSW
Cosmos 1603 4.5 06:37:11 10° WSW 06:42:11 30° NW 06:47:10 10° N
Cosmos 44 3.5 06:36:58 10° SW 06:42:20 82° NW 06:47:33 10° NNE
Cosmos 2369 Rocket 2.7 06:37:47 10° NW 06:43:12 44° WSW 06:48:32 10° S
Okean 1 Rocket 4.3 06:40:23 10° WSW 06:43:44 21° WNW 06:47:06 10° NNW
Cosmos 1269 Rocket 4.3 06:41:34 10° SSW 06:46:51 79° ESE 06:52:10 10° NNE
MSX 4.0 06:41:08 10° NNE 06:46:55 83° ESE 06:52:39 10° SSW
Cosmos 839 Rocket 4.2 06:41:33 10° NNW 06:48:20 87° NE 06:54:28 10° SSE
